Location: Holbach
(51.5399°N, 10.6036°E)
Time: 01:37:00
(UTC+00:00)

CENTAUR R/B - Pass Details

Date: 18 September 2020
Orbit: 755 x 1433 km, 63.4° (Epoch: 02 October)

Event Time Altitude Azimuth Distance (km) Brightness Sun altitude
Rises 19:23:07 0° 314° (NW) 4,063 7.2 -18.5°
Reaches altitude 10° 19:25:42 10° 315° (NW) 3,184 6.3 -18.9°
Maximum altitude 19:33:36 90° 235° (SW) 1,353 3.1 -20.0°
Enters shadow 19:38:32 30° 138° (SE) 2,296 3.9 -20.6°
